| time (UTC) | temp F | wind direction | speed knots | gust knots | rain 1hr in | rain 24hr in | rain mn in | humidity % | barometer mb |
| 20260502210452 | 72 | 224 | 4.3 | 8.7 | 0.00 | 0.00 | 0.00 | 23 | 1020.2 |
| 20260502205949 | 73 | 204 | 5.2 | 9.6 | 0.00 | 0.00 | 0.00 | 21 | 1020.1 |
| 20260502205445 | 73 | 115 | 1.7 | 4.3 | 0.00 | 0.00 | 0.00 | 21 | 1020.0 |
| 20260502204942 | 72 | 258 | 1.7 | 5.2 | 0.00 | 0.00 | 0.00 | 21 | 1020.2 |
| 20260502204439 | 70 | 257 | 3.5 | 4.3 | 0.00 | 0.00 | 0.00 | 23 | 1020.5 |
| 20260502203937 | 70 | 211 | 7.8 | 13.0 | 0.00 | 0.00 | 0.00 | 23 | 1020.2 |
| 20260502203434 | 73 | 235 | 6.1 | 10.4 | 0.00 | 0.00 | 0.00 | 22 | 1020.6 |
| 20260502202930 | 74 | 284 | 2.6 | 8.7 | 0.00 | 0.00 | 0.00 | 22 | 1020.5 |
| 20260502202427 | 71 | 172 | 0.9 | 5.2 | 0.00 | 0.00 | 0.00 | 22 | 1020.4 |
| 20260502201925 | 71 | 232 | 7.8 | 12.2 | 0.00 | 0.00 | 0.00 | 22 | 1020.6 |
| 20260502201421 | 72 | 216 | 5.2 | 6.1 | 0.00 | 0.00 | 0.00 | 22 | 1020.6 |
| 20260502200918 | 73 | 154 | 6.1 | 7.8 | 0.00 | 0.00 | 0.00 | 21 | 1020.7 |
| 20260502200414 | 72 | 150 | 6.1 | 9.6 | 0.00 | 0.00 | 0.00 | 21 | 1020.6 |
| 20260502195912 | 71 | 249 | 3.5 | 9.6 | 0.00 | 0.00 | 0.00 | 23 | 1020.6 |
| 20260502195408 | 72 | 202 | 13.0 | 18.2 | 0.00 | 0.00 | 0.00 | 22 | 1020.7 |
| 20260502194905 | 70 | 201 | 7.0 | 8.7 | 0.00 | 0.00 | 0.00 | 22 | 1020.7 |
| 20260502194402 | 72 | 245 | 5.2 | 10.4 | 0.00 | 0.00 | 0.00 | 23 | 1020.7 |
| 20260502193857 | 71 | 189 | 5.2 | 7.8 | 0.00 | 0.00 | 0.00 | 22 | 1020.9 |
| 20260502193355 | 71 | 228 | 2.6 | 4.3 | 0.00 | 0.00 | 0.00 | 23 | 1020.7 |
| 20260502192850 | 70 | 262 | 0.9 | 5.2 | 0.00 | 0.00 | 0.00 | 23 | 1021.0 |
| 20260502192347 | 71 | 313 | 4.3 | 5.2 | 0.00 | 0.00 | 0.00 | 23 | 1021.1 |
| 20260502191844 | 71 | 225 | 2.6 | 4.3 | 0.00 | 0.00 | 0.00 | 23 | 1021.2 |
| 20260502191343 | 71 | 66 | 4.3 | 5.2 | 0.00 | 0.00 | 0.00 | 23 | 1021.0 |
| 20260502190839 | 71 | 20 | 4.3 | 5.2 | 0.00 | 0.00 | 0.00 | 23 | 1021.4 |
| 20260502190337 | 69 | 163 | 2.6 | 7.8 | 0.00 | 0.00 | 0.00 | 24 | 1021.2 |
| 20260502185832 | 69 | 223 | 1.7 | 11.3 | 0.00 | 0.00 | 0.00 | 24 | 1021.2 |
| 20260502185328 | 69 | 285 | 4.3 | 7.0 | 0.00 | 0.00 | 0.00 | 24 | 1021.4 |
| 20260502184826 | 69 | 214 | 3.5 | 11.3 | 0.00 | 0.00 | 0.00 | 25 | 1021.2 |
| 20260502184321 | 69 | 213 | 2.6 | 7.8 | 0.00 | 0.00 | 0.00 | 26 | 1021.5 |
| 20260502183818 | 70 | 99 | 5.2 | 6.1 | 0.00 | 0.00 | 0.00 | 24 | 1021.4 |
| 20260502183314 | 71 | 97 | 1.7 | 7.0 | 0.00 | 0.00 | 0.00 | 24 | 1021.6 |
| 20260502182809 | 71 | 148 | 3.5 | 4.3 | 0.00 | 0.00 | 0.00 | 23 | 1021.6 |
| 20260502182305 | 71 | 69 | 2.6 | 6.1 | 0.00 | 0.00 | 0.00 | 26 | 1021.7 |
| 20260502181802 | 70 | 174 | 3.5 | 7.8 | 0.00 | 0.00 | 0.00 | 24 | 1021.7 |
| 20260502181301 | 68 | 121 | 5.2 | 8.7 | 0.00 | 0.00 | 0.00 | 26 | 1021.8 |
| 20260502180758 | 69 | 201 | 3.5 | 12.2 | 0.00 | 0.00 | 0.00 | 25 | 1021.9 |
| 20260502180255 | 68 | 126 | 4.3 | 7.8 | 0.00 | 0.00 | 0.00 | 27 | 1021.9 |
| 20260502170208 | 67 | 350 | 6.1 | 8.7 | 0.00 | 0.00 | 0.00 | 33 | 1022.5 |
| 20260502164149 | 64 | 275 | 4.3 | 8.7 | 0.00 | 0.00 | 0.00 | 41 | 1022.7 |
| 20260502163644 | 65 | 318 | 7.0 | 7.8 | 0.00 | 0.00 | 0.00 | 38 | 1022.4 |
| 20260502163141 | 64 | 359 | 7.0 | 9.6 | 0.00 | 0.00 | 0.00 | 41 | 1022.7 |
| 20260502162638 | 63 | 312 | 6.1 | 10.4 | 0.00 | 0.00 | 0.00 | 42 | 1022.5 |
| 20260502162136 | 64 | 346 | 6.1 | 7.0 | 0.00 | 0.00 | 0.00 | 42 | 1022.6 |
| 20260502161633 | 64 | 310 | 7.0 | 8.7 | 0.00 | 0.00 | 0.00 | 43 | 1022.7 |
| 20260502161129 | 62 | 316 | 5.2 | 5.2 | 0.00 | 0.00 | 0.00 | 45 | 1022.8 |
| 20260502160627 | 62 | 339 | 7.0 | 13.9 | 0.00 | 0.00 | 0.00 | 45 | 1022.7 |
| 20260502160126 | 62 | 313 | 5.2 | 10.4 | 0.00 | 0.00 | 0.00 | 44 | 1022.6 |
| 20260502152040 | 58 | 314 | 9.6 | 13.9 | 0.00 | 0.00 | 0.00 | 54 | 1022.6 |
| 20260502151537 | 58 | 310 | 5.2 | 13.0 | 0.00 | 0.00 | 0.00 | 55 | 1022.8 |
| 20260502151034 | 58 | 241 | 4.3 | 7.0 | 0.00 | 0.00 | 0.00 | 57 | 1022.8 |
| 20260502150532 | 56 | 293 | 8.7 | 14.8 | 0.00 | 0.00 | 0.00 | 59 | 1022.8 |
| 20260502130411 | 42 | 244 | 3.5 | 5.2 | 0.00 | 0.00 | 0.00 | 88 | 1022.5 |
| 20260502123353 | 39 | 179 | 1.7 | 4.3 | 0.00 | 0.00 | 0.00 | 92 | 1022.0 |
| 20260502122850 | 38 | 203 | 1.7 | 5.2 | 0.00 | 0.00 | 0.00 | 92 | 1021.7 |
| 20260502122346 | 38 | 177 | 1.7 | 5.2 | 0.00 | 0.00 | 0.00 | 93 | 1022.0 |
| 20260502121845 | 38 | 223 | 2.6 | 5.2 | 0.00 | 0.00 | 0.00 | 93 | 1021.9 |
| 20260502121342 | 36 | 200 | 1.7 | 3.5 | 0.00 | 0.00 | 0.00 | 92 | 1021.8 |
| 20260502120839 | 34 | 169 | 2.6 | 4.3 | 0.00 | 0.00 | 0.00 | 92 | 1021.7 |
| 20260502120335 | 36 | 183 | 3.5 | 4.3 | 0.00 | 0.00 | 0.00 | 92 | 1021.6 |
| 20260502115833 | 36 | 158 | 0.9 | 3.5 | 0.00 | 0.00 | 0.00 | 91 | 1021.5 |
| 20260502115330 | 36 | 174 | 3.5 | 4.3 | 0.00 | 0.00 | 0.00 | 91 | 1021.7 |
| 20260502114826 | 38 | 184 | 2.6 | 3.5 | 0.00 | 0.00 | 0.00 | 92 | 1021.6 |
| 20260502114323 | 38 | 217 | 2.6 | 5.2 | 0.00 | 0.00 | 0.00 | 92 | 1021.5 |
| 20260502113820 | 36 | 219 | 4.3 | 5.2 | 0.00 | 0.00 | 0.00 | 91 | 1021.6 |
| 20260502113318 | 36 | 181 | 3.5 | 5.2 | 0.00 | 0.00 | 0.00 | 90 | 1021.7 |
| 20260502112816 | 38 | 213 | 3.5 | 5.2 | 0.00 | 0.00 | 0.00 | 91 | 1021.6 |
| 20260502112313 | 37 | 173 | 1.7 | 4.3 | 0.00 | 0.00 | 0.00 | 90 | 1021.8 |
| 20260502111810 | 37 | 180 | 3.5 | 5.2 | 0.00 | 0.00 | 0.00 | 89 | 1021.9 |
| 20260502111308 | 41 | 227 | 5.2 | 7.0 | 0.00 | 0.00 | 0.00 | 90 | 1021.6 |
| 20260502110805 | 40 | 235 | 4.3 | 5.2 | 0.00 | 0.00 | 0.00 | 91 | 1021.8 |
| 20260502110303 | 40 | 190 | 2.6 | 5.2 | 0.00 | 0.00 | 0.00 | 91 | 1021.7 |
| 20260502105800 | 40 | 180 | 1.7 | 4.3 | 0.02 | 0.00 | 0.00 | 91 | 1021.8 |
| 20260502105256 | 40 | 265 | 1.7 | 5.2 | 0.02 | 0.00 | 0.00 | 92 | 1021.7 |
| 20260502104755 | 39 | 268 | 1.7 | 4.3 | 0.00 | 0.00 | 0.00 | 92 | 1021.8 |
| 20260502104251 | 39 | 321 | 1.7 | 7.0 | 0.00 | 0.00 | 0.00 | 92 | 1021.8 |
| 20260502103749 | 39 | 305 | 3.5 | 3.5 | 0.00 | 0.00 | 0.00 | 92 | 1021.8 |
| 20260502103246 | 38 | 210 | 1.7 | 5.2 | 0.00 | 0.00 | 0.00 | 92 | 1021.9 |
| 20260502102743 | 38 | 235 | 1.7 | 5.2 | 0.00 | 0.00 | 0.00 | 92 | 1021.8 |
| 20260502102239 | 36 | 221 | 1.7 | 3.5 | 0.00 | 0.00 | 0.00 | 91 | 1021.9 |
| 20260502101738 | 35 | 150 | 2.6 | 3.5 | 0.00 | 0.00 | 0.00 | 91 | 1022.0 |
| 20260502101236 | 37 | 167 | 0.9 | 3.5 | 0.00 | 0.00 | 0.00 | 90 | 1021.8 |
| 20260502100733 | 38 | 183 | 2.6 | 5.2 | 0.00 | 0.00 | 0.00 | 91 | 1021.7 |
| 20260502100232 | 39 | 222 | 4.3 | 5.2 | 0.00 | 0.00 | 0.00 | 91 | 1021.6 |
| 20260502091205 | 35 | 156 | 0.9 | 1.7 | 0.00 | 0.00 | 0.00 | 92 | 1021.5 |
| 20260502090703 | 36 | 153 | 1.7 | 2.6 | 0.00 | 0.00 | 0.00 | 92 | 1021.6 |
| 20260502090200 | 36 | 166 | 2.6 | 3.5 | 0.00 | 0.00 | 0.00 | 92 | 1021.5 |
| 20260502071050 | 38 | 145 | 3.5 | 3.5 | 0.00 | 0.00 | 0.00 | 87 | 1022.1 |
| 20260502070548 | 38 | 140 | 2.6 | 3.5 | 0.00 | 0.00 | 0.00 | 87 | 1022.1 |
| 20260502070045 | 39 | 168 | 2.6 | 3.5 | 0.00 | 0.00 | 0.00 | 87 | 1022.0 |
| 20260502065543 | 39 | 165 | 1.7 | 3.5 | 0.00 | 0.00 | 0.00 | 86 | 1022.1 |
| 20260502065035 | 39 | 154 | 2.6 | 3.5 | 0.00 | 0.00 | 0.00 | 86 | 1022.0 |
| 20260502064533 | 39 | 126 | 2.6 | 2.6 | 0.00 | 0.00 | 0.00 | 86 | 1022.0 |
| 20260502064030 | 39 | 126 | 1.7 | 3.5 | 0.00 | 0.00 | 0.00 | 86 | 1022.0 |
| 20260502063528 | 40 | 150 | 1.7 | 2.6 | 0.00 | 0.00 | 0.00 | 86 | 1021.9 |
| 20260502063026 | 40 | 158 | 0.0 | 1.7 | 0.00 | 0.00 | 0.00 | 86 | 1022.1 |
| 20260502062522 | 39 | 135 | 0.0 | 1.7 | 0.00 | 0.00 | 0.00 | 86 | 1022.0 |
| 20260502062021 | 39 | 162 | 1.7 | 2.6 | 0.00 | 0.00 | 0.00 | 86 | 1022.0 |
| 20260502061518 | 39 | 141 | 3.5 | 4.3 | 0.00 | 0.00 | 0.00 | 85 | 1022.0 |
| 20260502061015 | 39 | 142 | 3.5 | 3.5 | 0.00 | 0.00 | 0.00 | 85 | 1022.2 |
| 20260502060510 | 39 | 159 | 2.6 | 3.5 | 0.00 | 0.00 | 0.00 | 85 | 1022.0 |
| 20260502060008 | 40 | 159 | 3.5 | 3.5 | 0.00 | 0.00 | 0.00 | 85 | 1022.1 |
| 20260502055504 | 40 | 153 | 1.7 | 1.7 | 0.00 | 0.00 | 0.00 | 85 | 1022.2 |
| 20260502055004 | 40 | 124 | 1.7 | 1.7 | 0.00 | 0.00 | 0.00 | 85 | 1021.9 |
| 20260502054502 | 40 | 109 | 1.7 | 1.7 | 0.00 | 0.00 | 0.00 | 85 | 1022.0 |
| 20260502053958 | 40 | 107 | 1.7 | 2.6 | 0.00 | 0.00 | 0.00 | 85 | 1022.0 |
| 20260502053455 | 40 | 139 | 2.6 | 2.6 | 0.00 | 0.00 | 0.00 | 84 | 1022.2 |
| 20260502052953 | 41 | 141 | 2.6 | 3.5 | 0.00 | 0.00 | 0.00 | 84 | 1022.4 |
| 20260502052451 | 41 | 122 | 1.7 | 2.6 | 0.00 | 0.00 | 0.00 | 84 | 1022.2 |
| 20260502051949 | 41 | 137 | 1.7 | 2.6 | 0.00 | 0.00 | 0.00 | 84 | 1022.0 |
| 20260502051447 | 42 | 163 | 1.7 | 1.7 | 0.00 | 0.00 | 0.00 | 84 | 1022.0 |
| 20260502050944 | 41 | 132 | 0.9 | 1.7 | 0.00 | 0.00 | 0.00 | 84 | 1022.0 |
| 20260502050440 | 41 | 120 | 1.7 | 2.6 | 0.00 | 0.00 | 0.00 | 84 | 1021.9 |
| 20260502045938 | 41 | 138 | 2.6 | 3.5 | 0.00 | 0.00 | 0.00 | 83 | 1021.9 |
| 20260502045434 | 42 | 142 | 3.5 | 3.5 | 0.00 | 0.00 | 0.00 | 83 | 1021.7 |
| 20260502044931 | 42 | 138 | 3.5 | 4.3 | 0.00 | 0.00 | 0.00 | 83 | 1021.8 |
| 20260502044427 | 42 | 140 | 3.5 | 3.5 | 0.00 | 0.00 | 0.00 | 83 | 1022.0 |
| 20260502043924 | 43 | 169 | 1.7 | 2.6 | 0.00 | 0.00 | 0.00 | 83 | 1021.8 |
| 20260502043422 | 43 | 149 | 0.9 | 1.7 | 0.00 | 0.00 | 0.00 | 82 | 1021.8 |
| 20260502042921 | 44 | 169 | 1.7 | 1.7 | 0.00 | 0.00 | 0.00 | 83 | 1021.8 |
| 20260502042419 | 43 | 193 | 1.7 | 1.7 | 0.00 | 0.00 | 0.00 | 83 | 1021.8 |
| 20260502041915 | 43 | 191 | 1.7 | 3.5 | 0.00 | 0.00 | 0.00 | 83 | 1021.8 |
| 20260502041414 | 43 | 160 | 1.7 | 2.6 | 0.00 | 0.00 | 0.00 | 81 | 1021.5 |
| 20260502040910 | 44 | 130 | 1.7 | 2.6 | 0.00 | 0.00 | 0.00 | 79 | 1021.6 |
| 20260502040407 | 45 | 107 | 0.9 | 0.9 | 0.00 | 0.00 | 0.00 | 79 | 1021.6 |
| 20260502035903 | 46 | 60 | 0.0 | 0.9 | 0.00 | 0.00 | 0.00 | 78 | 1021.5 |
| 20260502035400 | 46 | 53 | 1.7 | 1.7 | 0.00 | 0.00 | 0.00 | 78 | 1021.7 |
| 20260502034857 | 46 | 38 | 1.7 | 2.6 | 0.00 | 0.00 | 0.00 | 79 | 1021.6 |
| 20260502034356 | 46 | 53 | 1.7 | 2.6 | 0.00 | 0.00 | 0.00 | 79 | 1021.7 |
| 20260502033854 | 46 | 62 | 0.9 | 1.7 | 0.00 | 0.00 | 0.00 | 78 | 1021.7 |
| 20260502033351 | 46 | 55 | 1.7 | 1.7 | 0.00 | 0.00 | 0.00 | 77 | 1021.9 |
| 20260502032847 | 47 | 31 | 0.9 | 1.7 | 0.00 | 0.00 | 0.00 | 76 | 1021.7 |
| 20260502032343 | 47 | 31 | 2.6 | 2.6 | 0.00 | 0.00 | 0.00 | 76 | 1021.4 |
| 20260502031841 | 48 | 7 | 1.7 | 2.6 | 0.00 | 0.00 | 0.00 | 75 | 1021.5 |
| 20260502031340 | 48 | 19 | 2.6 | 3.5 | 0.00 | 0.00 | 0.00 | 75 | 1021.6 |
| 20260502030838 | 48 | 7 | 2.6 | 4.3 | 0.00 | 0.00 | 0.00 | 75 | 1021.6 |
| 20260502030336 | 48 | 11 | 3.5 | 3.5 | 0.00 | 0.00 | 0.00 | 75 | 1021.5 |
| 20260502025832 | 48 | 29 | 2.6 | 3.5 | 0.00 | 0.00 | 0.00 | 75 | 1021.4 |
| 20260502025330 | 48 | 13 | 1.7 | 3.5 | 0.00 | 0.00 | 0.00 | 75 | 1021.2 |
| 20260502024828 | 48 | 14 | 2.6 | 4.3 | 0.00 | 0.00 | 0.00 | 75 | 1021.4 |
| 20260502024325 | 48 | 19 | 2.6 | 3.5 | 0.00 | 0.00 | 0.00 | 75 | 1021.2 |
| 20260502023823 | 48 | 17 | 2.6 | 2.6 | 0.00 | 0.00 | 0.00 | 75 | 1021.1 |
| 20260502023321 | 48 | 24 | 1.7 | 3.5 | 0.00 | 0.00 | 0.00 | 74 | 1021.0 |
| 20260502022819 | 48 | 6 | 1.7 | 2.6 | 0.00 | 0.00 | 0.00 | 74 | 1021.0 |
| 20260502022315 | 48 | 22 | 2.6 | 2.6 | 0.00 | 0.00 | 0.00 | 73 | 1021.2 |
| 20260502021811 | 48 | 25 | 2.6 | 2.6 | 0.00 | 0.00 | 0.00 | 73 | 1021.0 |
| 20260502021309 | 48 | 14 | 1.7 | 2.6 | 0.00 | 0.00 | 0.00 | 72 | 1021.1 |
| 20260502020806 | 49 | 1 | 1.7 | 2.6 | 0.00 | 0.00 | 0.00 | 72 | 1020.8 |
| 20260502020303 | 49 | 16 | 1.7 | 1.7 | 0.00 | 0.00 | 0.00 | 71 | 1020.8 |
| 20260502015800 | 49 | 19 | 2.6 | 2.6 | 0.00 | 0.00 | 0.00 | 70 | 1020.5 |
| 20260502015257 | 50 | 16 | 2.6 | 3.5 | 0.00 | 0.00 | 0.00 | 69 | 1020.6 |
| 20260502014755 | 50 | 19 | 2.6 | 2.6 | 0.00 | 0.00 | 0.00 | 69 | 1020.6 |
| 20260502014251 | 50 | 27 | 1.7 | 2.6 | 0.00 | 0.00 | 0.00 | 68 | 1020.8 |
| 20260502013747 | 51 | 13 | 1.7 | 2.6 | 0.00 | 0.00 | 0.00 | 68 | 1020.2 |
| 20260502013243 | 51 | 14 | 2.6 | 3.5 | 0.00 | 0.00 | 0.00 | 67 | 1020.4 |
| 20260502012740 | 51 | 3 | 2.6 | 2.6 | 0.00 | 0.00 | 0.00 | 66 | 1020.2 |
| 20260502012238 | 52 | 349 | 3.5 | 3.5 | 0.00 | 0.00 | 0.00 | 65 | 1020.2 |
| 20260502011735 | 52 | 5 | 1.7 | 3.5 | 0.00 | 0.00 | 0.00 | 64 | 1019.7 |
| 20260502011231 | 53 | 12 | 2.6 | 3.5 | 0.00 | 0.00 | 0.00 | 63 | 1019.9 |
| 20260502010729 | 53 | 7 | 3.5 | 5.2 | 0.00 | 0.00 | 0.00 | 62 | 1019.9 |
| 20260502010224 | 53 | 12 | 3.5 | 3.5 | 0.00 | 0.00 | 0.00 | 62 | 1019.8 |
| 20260502005722 | 54 | 6 | 3.5 | 5.2 | 0.00 | 0.00 | 0.00 | 61 | 1019.9 |
| 20260502005220 | 55 | 349 | 2.6 | 4.3 | 0.00 | 0.00 | 0.00 | 59 | 1019.8 |
| 20260502004716 | 56 | 340 | 2.6 | 7.0 | 0.00 | 0.00 | 0.00 | 58 | 1019.8 |
| 20260502004212 | 56 | 347 | 3.5 | 3.5 | 0.00 | 0.00 | 0.00 | 58 | 1019.6 |
| 20260502003710 | 56 | 355 | 1.7 | 3.5 | 0.00 | 0.00 | 0.00 | 57 | 1019.6 |
| 20260502003208 | 56 | 352 | 3.5 | 7.0 | 0.00 | 0.00 | 0.00 | 57 | 1019.5 |
| 20260502002703 | 56 | 54 | 4.3 | 7.8 | 0.00 | 0.00 | 0.00 | 57 | 1019.7 |
| 20260502002201 | 56 | 25 | 4.3 | 7.8 | 0.00 | 0.00 | 0.00 | 57 | 1019.4 |
| 20260502001658 | 56 | 357 | 7.0 | 8.7 | 0.00 | 0.00 | 0.00 | 57 | 1019.5 |
| 20260502001155 | 57 | 80 | 4.3 | 6.1 | 0.00 | 0.00 | 0.00 | 56 | 1019.4 |
| 20260502000653 | 57 | 45 | 5.2 | 6.1 | 0.00 | 0.00 | 0.00 | 57 | 1019.6 |
| 20260502000151 | 57 | 25 | 4.3 | 6.1 | 0.00 | 0.00 | 0.00 | 56 | 1019.4 |
| 20260501235646 | 57 | 35 | 5.2 | 7.0 | 0.00 | 0.00 | 0.00 | 55 | 1019.4 |
| 20260501235143 | 57 | 354 | 4.3 | 5.2 | 0.00 | 0.00 | 0.00 | 54 | 1019.6 |
| 20260501234638 | 56 | 17 | 2.6 | 4.3 | 0.00 | 0.00 | 0.00 | 55 | 1019.5 |
| 20260501234136 | 58 | 47 | 4.3 | 6.1 | 0.00 | 0.00 | 0.00 | 55 | 1019.6 |
| 20260501233634 | 57 | 83 | 3.5 | 4.3 | 0.00 | 0.00 | 0.00 | 56 | 1019.5 |
| 20260501233131 | 56 | 30 | 7.0 | 7.8 | 0.00 | 0.00 | 0.00 | 57 | 1019.5 |
| 20260501232627 | 55 | 6 | 3.5 | 4.3 | 0.00 | 0.00 | 0.00 | 61 | 1019.4 |
| 20260501232124 | 54 | 56 | 3.5 | 7.0 | 0.00 | 0.00 | 0.00 | 62 | 1019.7 |
| 20260501231622 | 54 | 5 | 5.2 | 9.6 | 0.00 | 0.00 | 0.00 | 64 | 1019.7 |
| 20260501231120 | 55 | 1 | 3.5 | 7.8 | 0.00 | 0.00 | 0.00 | 65 | 1019.6 |
| 20260501230618 | 54 | 354 | 6.1 | 7.0 | 0.00 | 0.00 | 0.00 | 65 | 1019.7 |
| 20260501230116 | 54 | 28 | 5.2 | 6.1 | 0.00 | 0.00 | 0.00 | 64 | 1019.6 |
| 20260501225613 | 53 | 347 | 3.5 | 5.2 | 0.00 | 0.00 | 0.00 | 66 | 1019.7 |
| 20260501225109 | 54 | 17 | 5.2 | 7.8 | 0.00 | 0.00 | 0.00 | 68 | 1019.7 |
| 20260501224607 | 53 | 39 | 4.3 | 7.0 | 0.00 | 0.00 | 0.00 | 69 | 1019.9 |
| 20260501224103 | 53 | 350 | 7.0 | 10.4 | 0.00 | 0.00 | 0.00 | 69 | 1019.7 |
| 20260501223600 | 53 | 346 | 5.2 | 7.0 | 0.00 | 0.00 | 0.00 | 71 | 1019.8 |
| 20260501223056 | 53 | 11 | 7.0 | 7.8 | 0.00 | 0.00 | 0.00 | 72 | 1019.8 |
| 20260501222553 | 53 | 351 | 5.2 | 6.1 | 0.00 | 0.00 | 0.00 | 71 | 1019.7 |
| 20260501222050 | 52 | 330 | 4.3 | 7.0 | 0.00 | 0.00 | 0.00 | 72 | 1020.0 |
| 20260501221546 | 52 | 52 | 4.3 | 7.0 | 0.00 | 0.00 | 0.00 | 73 | 1019.8 |
| 20260501221044 | 52 | 15 | 5.2 | 7.0 | 0.00 | 0.00 | 0.00 | 74 | 1019.9 |
| 20260501220542 | 52 | 21 | 6.1 | 7.8 | 0.00 | 0.00 | 0.00 | 75 | 1019.6 |
| 20260501220038 | 52 | 24 | 6.1 | 8.7 | 0.00 | 0.00 | 0.00 | 76 | 1019.7 |
| 20260501215534 | 52 | 8 | 4.3 | 7.0 | 0.00 | 0.00 | 0.00 | 75 | 1019.8 |
| 20260501215030 | 52 | 12 | 5.2 | 7.0 | 0.00 | 0.00 | 0.00 | 75 | 1019.9 |
| 20260501214525 | 52 | 10 | 3.5 | 6.1 | 0.00 | 0.00 | 0.00 | 75 | 1020.0 |
| 20260501214021 | 51 | 9 | 5.2 | 6.1 | 0.00 | 0.00 | 0.00 | 74 | 1019.8 |
| 20260501213519 | 51 | 16 | 6.1 | 7.0 | 0.00 | 0.00 | 0.00 | 75 | 1019.8 |
| 20260501213015 | 51 | 49 | 7.8 | 10.4 | 0.00 | 0.00 | 0.00 | 76 | 1020.1 |
| 20260501212511 | 51 | 14 | 5.2 | 8.7 | 0.00 | 0.00 | 0.00 | 76 | 1019.7 |
| 20260501212008 | 51 | 344 | 6.1 | 8.7 | 0.00 | 0.00 | 0.00 | 77 | 1019.9 |
| 20260501211505 | 51 | 12 | 7.0 | 10.4 | 0.00 | 0.00 | 0.00 | 75 | 1019.9 |
| 20260501211003 | 52 | 353 | 5.2 | 8.7 | 0.00 | 0.00 | 0.00 | 74 | 1019.9 |